{"data":{"norad_id":55175,"epoch":"2026-09-20T00:44:43.931328Z","epoch_age_seconds":62480,"freshness":"FRESH","line1":"1 55175U 23004AM  26263.03106402  .00000416  00000+0  11386-2 0  9998","line2":"2 55175  87.8971   2.2159 0001953 112.4799 247.6536 13.11417433178259","mean_motion":13.11417433,"eccentricity":0.0001953,"inclination_deg":87.8971,"raan_deg":2.2159,"arg_perigee_deg":112.4799,"mean_anomaly_deg":247.6536,"bstar":0.0011386,"rev_number":17825,"period_min":109.80485418025,"perigee_km":1216.1973508016,"apogee_km":1219.1642772397,"semimajor_km":7595.8178140206,"source":"CELESTRAK","updated_at":"2026-09-20T09:00:44.757619Z"}}